Theta_e
307 306 305 306 305 304 303 305 305 304 305 306 304 304 304 305 306 304 307 307 308 310 311 311 311 310 314 319 322 325 325 322 319 317 315 314 313 312 310 305 305 304 306 310
307 305 304 305 306 304 304 305 304 304 304 305 303 303 303 303 303 306 305 307 308 309 311 311 310 310 310 315 321 323 324 322 319 317 315 315 314 312 310 305 305 304 305 309
307 307 306 306 307 307 306 305 305 305 305 304 303 302 303 303 303 305 306 307 308 308 310 311 310 310 310 315 319 322 322 322 319 317 316 315 314 312 310 305 305 304 305 309
305 306 306 306 306 306 306 305 306 306 305 305 303 304 302 304 303 303 306 306 307 308 308 310 310 310 311 314 318 321 322 320 319 318 316 315 315 312 310 305 305 304 305 309
306 305 306 307 307 307 308 306 307 306 305 305 304 303 302 303 304 305 306 309 309 308 308 309 310 311 312 315 318 320 321 320 319 318 317 315 315 312 309 304 305 304 305 308
306 306 306 306 306 307 305 307 308 306 305 303 305 305 305 305 306 306 305 308 310 309 309 308 309 311 312 315 319 321 321 320 318 317 317 315 315 312 309 304 306 305 305 308
306 305 305 305 305 305 305 305 305 304 302 306 304 303 307 305 305 304 305 308 309 310 309 308 308 310 313 316 319 321 321 320 318 317 317 315 315 313 309 304 306 305 305 307
308 307 305 304 305 306 304 307 307 309 308 309 304 306 307 305 307 306 308 309 309 310 310 309 308 309 312 315 318 320 320 319 317 316 316 315 315 313 308 303 306 305 305 307
306 306 305 305 304 305 305 307 306 306 298 307 307 304 305 305 305 305 305 308 309 310 310 309 309 309 312 316 318 319 318 317 316 315 316 315 315 312 308 303 306 306 305 306
307 305 305 304 305 305 305 305 308 304 303 308 308 307 310 310 307 305 305 306 309 310 310 309 309 308 309 313 313 311 312 313 314 315 315 315 315 312 307 303 306 306 305 305
308 307 306 304 305 306 304 306 305 305 306 308 306 308 305 310 309 308 305 306 308 310 310 310 309 308 308 308 308 309 312 315 315 315 315 315 314 311 306 303 305 306 306 305
308 307 305 306 304 304 305 305 305 306 303 305 307 307 308 307 307 307 308 309 310 309 309 310 310 310 310 310 310 311 313 316 316 315 315 315 314 310 305 303 305 306 306 305
309 309 308 308 307 305 305 305 306 305 304 306 308 306 306 307 307 307 307 310 310 309 309 310 311 311 311 312 312 314 315 315 315 314 314 314 313 309 305 303 305 306 306 306
307 309 310 310 309 306 304 305 305 305 305 306 308 308 310 308 309 308 307 308 308 309 310 311 311 312 312 312 312 313 314 314 313 314 314 314 312 309 305 303 304 306 306 306
306 310 309 309 306 307 306 306 305 305 307 308 308 305 306 308 306 307 308 307 307 309 310 311 311 311 312 312 312 312 312 313 313 314 314 314 312 308 304 303 304 306 306 306
303 303 308 309 307 306 307 306 305 305 306 306 306 303 305 306 308 309 309 308 308 308 309 310 310 311 312 312 312 312 311 312 313 314 314 314 311 307 304 303 303 305 306 306
299 303 305 307 309 308 310 307 306 306 306 306 307 308 306 306 307 307 309 309 310 310 310 310 311 311 311 311 312 312 311 312 313 313 314 313 311 307 305 304 303 304 306 306
297 297 300 302 303 310 307 306 306 306 307 306 306 306 306 306 308 309 309 309 310 310 311 312 312 310 310 311 311 312 312 312 313 313 313 313 311 307 305 304 303 303 304 306
297 297 299 302 295 303 304 306 308 306 307 306 305 306 305 307 307 307 309 309 310 311 311 311 312 312 310 309 309 311 312 312 313 313 313 312 310 307 305 305 304 303 303 304
297 297 298 297 301 297 300 304 304 308 311 308 306 306 306 305 305 307 308 309 309 310 310 311 312 312 312 311 309 309 311 311 312 312 312 312 310 307 306 305 305 304 303 303
293 297 298 298 299 299 299 303 302 306 308 303 303 304 305 305 307 308 308 309 309 309 310 310 310 311 312 311 309 308 309 310 310 311 311 311 311 308 306 305 304 304 303 302
292 294 296 297 298 299 298 299 300 300 301 301 302 303 304 305 304 305 307 307 308 309 310 310 310 310 310 311 310 308 308 308 309 310 310 310 310 307 305 305 304 304 303 303
292 293 294 296 297 297 298 298 298 299 299 300 302 303 304 302 302 304 306 307 307 308 308 309 309 309 310 310 310 309 308 308 308 309 309 310 309 307 305 305 304 303 303 303
291 292 293 293 295 296 298 298 299 299 299 300 300 300 300 302 304 306 305 306 307 307 308 309 309 309 310 310 309 309 307 307 308 308 309 308 308 306 305 304 304 304 304 303
293 292 292 293 293 295 296 297 297 297 297 298 300 301 301 304 305 305 305 305 305 307 307 307 309 309 309 310 310 308 306 306 307 308 308 307 307 306 305 305 305 304 304 304
293 293 293 293 294 296 296 297 297 298 299 300 301 303 303 301 301 302 301 302 304 304 306 307 308 308 308 308 309 308 306 306 307 307 307 306 306 305 305 305 304 303 302 302
Wind_Speed
8 5 11 14 14 2 4 4 3 3 3 3 7 10 11 20 25 20 31 31 26 27 22 25 28 28 29 31 28 28 28 28 28 25 22 18 14 11 8 6 5 4 3 2
4 16 9 9 7 9 5 3 4 5 4 3 5 11 13 12 16 32 29 35 36 30 26 23 29 31 32 34 33 31 30 30 29 25 20 16 14 12 10 8 7 6 5 4
12 4 15 12 8 12 8 10 4 5 3 3 4 7 8 7 13 26 32 38 37 38 34 28 31 33 33 37 37 33 32 31 28 25 23 20 18 16 14 10 9 8 7 5
11 6 14 9 14 12 9 11 8 6 3 4 1 5 6 8 10 7 26 24 34 37 37 33 34 35 35 36 36 33 32 30 27 27 26 23 17 15 12 10 10 10 9 7
10 12 10 10 10 16 6 8 11 6 4 0 3 2 7 3 8 15 15 31 31 29 35 36 36 38 33 35 36 34 32 30 28 29 27 23 18 15 14 13 13 12 11 9
7 7 11 10 7 15 8 7 6 4 3 2 9 8 5 6 9 7 7 21 20 21 23 31 32 38 38 37 36 34 33 31 29 30 28 24 21 19 16 15 15 14 13 11
4 5 5 9 7 4 6 8 2 2 1 6 2 4 8 9 12 8 10 12 16 17 22 27 34 39 42 40 38 35 34 33 31 30 29 27 23 19 15 14 14 15 15 14
13 6 14 7 8 10 8 9 7 8 5 3 4 8 6 13 16 10 16 15 8 11 17 25 31 37 42 42 39 37 36 34 32 30 30 28 24 20 17 15 15 15 14 14
8 12 4 14 6 13 7 13 6 6 3 3 5 7 8 11 12 7 14 9 12 13 14 21 24 32 40 42 40 39 37 35 33 30 31 29 26 22 19 17 16 16 16 15
4 1 6 7 6 1 14 11 3 2 5 4 5 5 7 3 10 8 6 12 14 15 17 20 22 27 34 38 38 36 34 34 32 30 32 30 26 23 20 18 18 17 16 16
2 3 3 9 12 17 5 11 3 6 5 6 2 6 9 18 12 12 10 17 17 17 19 20 20 24 29 33 34 33 33 33 33 32 33 31 27 24 21 19 18 18 17 16
10 2 4 16 4 6 7 10 8 6 7 2 3 7 4 9 8 5 4 8 16 18 19 18 20 21 25 29 30 31 32 32 32 32 34 31 27 25 23 20 19 19 17 16
15 6 3 4 5 1 15 7 20 4 4 11 8 7 4 3 4 1 9 10 11 13 16 18 19 21 23 25 27 29 30 31 31 33 34 32 29 27 23 21 20 19 18 17
6 11 16 15 13 7 7 16 10 5 4 6 20 5 2 4 4 2 4 7 8 10 14 16 18 20 22 23 26 28 29 29 30 33 34 33 30 27 24 22 21 20 19 18
2 5 20 19 4 14 8 16 20 16 25 9 18 11 7 5 5 3 2 5 8 11 14 15 16 17 21 23 25 26 27 29 32 34 35 33 30 27 25 23 22 21 20 19
7 3 4 24 13 12 7 18 18 22 19 20 11 3 8 5 1 4 5 7 9 11 12 12 14 16 20 23 25 27 29 31 33 35 35 33 31 29 27 25 24 22 21 20
6 5 5 3 12 8 14 18 22 22 24 26 19 24 5 12 13 7 10 10 13 17 15 14 16 19 21 22 25 29 30 31 34 35 35 35 34 32 30 28 26 24 23 21
4 7 3 3 3 10 2 6 19 25 19 24 24 14 7 9 20 28 21 14 17 19 20 20 20 23 25 22 25 27 29 32 35 36 36 36 36 35 33 30 29 26 24 23
12 4 3 3 4 4 2 4 15 15 20 21 15 13 8 11 10 25 29 22 20 23 21 22 21 20 23 24 25 29 31 33 37 39 38 38 38 37 35 33 30 28 26 25
14 12 6 2 4 7 6 5 12 13 21 19 10 7 8 9 6 15 22 27 36 39 39 34 24 27 27 26 29 32 34 35 39 41 40 38 37 37 36 33 31 29 27 24
3 6 14 12 7 5 6 4 13 1 4 4 5 1 4 4 15 19 23 23 24 24 25 25 28 28 27 31 32 36 37 38 37 37 38 37 38 37 36 33 31 29 27 24
9 8 6 6 10 16 8 1 7 7 16 18 11 14 4 5 18 23 20 19 27 31 28 27 32 32 32 33 34 38 41 37 37 36 36 37 37 37 36 34 31 30 28 27
8 7 6 10 7 5 14 18 28 32 31 25 26 25 19 17 29 25 20 17 19 27 31 35 39 36 36 34 34 38 40 41 38 36 36 37 38 37 36 34 33 32 30 29
5 12 10 8 7 7 25 29 25 25 28 32 37 44 30 25 26 24 18 20 23 23 26 30 36 41 37 30 31 34 38 41 39 38 38 38 38 38 36 35 34 33 33 32
14 9 15 13 14 15 31 36 34 38 44 44 38 39 39 27 32 32 30 28 33 32 31 31 34 38 37 34 33 34 37 38 39 39 39 40 40 40 38 36 34 34 30 28
11 19 12 9 22 21 32 38 41 42 39 39 39 35 31 23 26 29 29 26 31 33 36 35 33 34 40 39 37 36 36 38 40 42 42 43 43 41 39 37 35 30 25 25
Wind_Direction
191 164 198 189 193 172 161 166 193 238 204 183 223 261 267 272 285 264 269 267 256 245 244 235 228 226 222 220 218 216 215 214 214 210 208 209 210 207 199 187 180 170 182 152
147 225 194 184 186 208 210 200 243 290 242 171 267 259 264 257 253 259 251 257 254 242 234 225 217 217 221 220 215 215 216 216 215 216 214 214 208 203 202 195 185 175 184 175
199 185 172 182 184 200 217 221 208 227 329 254 307 275 260 279 245 261 257 254 253 245 234 223 212 214 218 215 214 214 215 214 215 212 209 205 206 206 206 197 187 181 185 182
227 206 177 193 210 182 213 192 198 191 142 238 104 281 290 273 282 257 263 254 243 239 235 230 216 213 216 215 214 216 214 213 212 210 210 214 217 213 203 194 186 185 184 185
216 178 163 196 202 180 220 157 187 175 177 127 244 291 271 254 265 259 259 255 249 245 233 227 223 216 216 216 214 214 212 211 210 210 212 212 209 207 205 197 187 185 186 186
200 192 188 178 159 177 152 95 62 61 111 285 190 190 243 219 217 249 269 263 256 239 231 228 227 216 214 215 214 212 210 210 210 211 210 207 206 207 205 199 190 185 184 186
149 201 185 151 127 139 168 131 36 358 357 229 167 186 249 257 257 226 258 278 245 232 227 220 215 212 211 212 212 211 211 210 210 210 208 205 205 208 208 205 194 189 185 185
182 204 179 181 182 167 176 163 160 185 197 213 105 230 257 240 267 270 256 277 263 227 225 219 215 212 211 212 212 211 211 212 211 210 207 204 204 204 203 201 193 187 184 186
179 228 156 182 156 146 186 205 151 102 20 71 218 284 289 257 266 262 246 241 230 215 209 209 212 214 211 211 213 213 212 212 213 211 207 204 203 201 202 197 191 187 187 187
228 124 220 184 118 267 179 146 146 345 138 224 264 266 230 302 261 268 226 211 209 202 203 207 208 208 210 213 216 217 218 217 215 212 207 204 202 201 201 199 194 187 186 188
321 143 307 140 204 181 138 183 153 126 167 169 207 256 215 217 218 232 230 220 216 210 210 210 213 208 210 212 216 217 216 215 215 213 207 202 199 200 201 198 192 188 186 188
199 92 162 205 288 205 196 184 163 170 218 230 137 255 226 227 236 245 257 228 223 229 219 212 215 216 211 213 214 216 214 213 216 213 205 201 199 201 201 197 193 190 188 188
200 200 135 117 323 249 208 203 200 111 117 204 169 244 320 137 89 118 183 207 197 202 202 206 209 214 216 213 211 211 212 213 212 208 203 202 201 203 201 199 195 191 190 191
0 211 216 210 207 133 186 203 206 173 181 181 218 131 168 242 201 136 132 174 176 179 192 202 208 214 216 216 214 212 211 210 205 202 202 203 203 203 202 200 196 194 192 193
203 248 221 230 187 182 188 203 204 206 224 193 230 206 263 200 198 217 180 174 172 184 197 208 214 217 218 217 216 215 211 205 201 201 202 204 205 204 202 201 197 195 194 193
336 269 322 225 225 210 195 200 201 217 226 238 221 268 218 217 278 184 171 193 205 208 206 211 223 230 228 223 219 215 210 206 202 202 203 204 204 204 202 202 198 197 194 195
306 338 2 289 213 195 235 209 203 216 221 221 230 229 189 273 261 247 268 234 254 259 262 245 251 250 239 231 224 219 211 206 205 205 206 205 204 203 203 201 199 198 197 197
224 321 303 268 9 222 263 267 200 216 222 228 241 225 188 203 255 282 281 273 285 291 297 293 281 261 247 236 230 224 218 211 210 209 208 207 206 204 204 202 200 199 198 199
188 160 267 232 202 325 330 324 209 188 235 231 250 246 223 233 267 269 257 267 277 281 287 278 283 282 260 245 234 226 221 217 215 214 211 209 208 206 205 204 202 200 200 200
178 184 201 284 238 199 222 137 34 224 246 230 211 221 206 167 210 251 260 260 258 257 261 268 276 269 261 253 236 227 223 219 219 217 214 212 210 209 209 207 204 202 203 204
171 194 210 216 228 267 253 158 90 293 253 59 69 341 47 199 243 276 285 270 263 260 266 262 258 265 267 253 241 229 225 223 222 218 216 213 211 210 210 209 207 205 204 202
176 179 198 209 227 231 205 309 200 218 285 293 294 281 170 318 307 304 293 283 272 262 260 266 274 275 270 254 243 233 229 228 221 217 214 213 211 209 209 209 206 206 204 207
224 198 208 213 227 175 224 213 243 251 261 268 270 258 239 272 284 285 280 289 282 267 263 263 268 269 265 249 241 236 235 226 220 214 212 209 208 208 208 207 207 206 206 209
246 228 230 251 243 220 225 237 235 239 256 264 263 265 261 248 253 263 274 289 297 290 278 268 263 262 258 242 241 240 235 226 218 214 208 206 204 204 205 204 207 210 209 208
224 204 222 233 232 245 243 236 236 249 252 256 256 258 252 234 252 258 264 272 282 287 290 285 265 257 247 252 245 238 230 221 214 211 208 205 203 201 201 204 206 210 215 218
210 220 214 218 221 221 237 235 239 239 234 239 245 239 234 231 247 261 266 267 268 275 281 288 278 256 248 247 236 235 227 216 212 208 206 205 201 199 200 201 199 201 209 213